Theta_e
310 310 310 310 310 310 310 310 309 309 309 309 309 310 309 309 308 309 311 311 311 314 314 313 315 315 316 318 316 315 320 320 319 318 317 317 317 314 314 316 315 316 317 317 312
311 311 310 310 310 310 309 309 309 309 309 309 310 310 310 310 310 313 311 310 312 313 314 315 317 316 318 319 319 320 320 319 317 317 316 317 316 317 316 318 317 316 316 313 312
313 312 312 311 311 310 311 310 309 308 308 308 308 309 310 309 313 311 314 314 312 314 314 314 315 317 318 318 319 320 319 319 316 315 314 316 316 316 317 318 319 318 318 317 313
314 314 314 314 313 313 313 313 313 312 311 310 309 307 308 310 314 309 315 312 312 314 313 314 316 317 318 319 318 319 319 318 317 315 316 316 316 316 316 318 318 318 317 317 316
315 315 315 315 315 315 315 315 315 314 314 314 312 309 307 311 312 311 311 312 313 313 314 316 316 317 318 318 317 318 319 318 317 316 316 316 317 318 317 317 317 316 315 314 315
315 315 315 315 316 316 316 317 317 315 315 314 313 310 309 308 310 310 311 313 314 313 314 314 316 316 316 316 317 316 316 316 315 315 315 315 316 314 315 316 315 315 314 314 314
316 316 316 317 317 318 319 319 318 316 315 314 312 310 310 312 308 310 312 315 314 313 313 312 312 315 315 316 314 314 315 315 315 314 314 314 315 315 315 315 314 314 315 314 313
317 318 318 319 319 320 321 320 318 315 312 311 310 309 311 306 307 308 312 312 313 313 311 311 311 313 314 313 312 313 313 315 315 312 312 314 315 315 315 312 313 314 315 314 314
319 319 319 319 320 320 321 319 314 311 310 308 311 309 312 307 309 309 310 310 310 310 310 309 312 313 312 314 315 314 315 315 315 312 312 315 314 315 313 312 313 313 313 314 314
319 320 321 322 323 323 321 317 310 314 313 312 310 310 309 310 309 309 309 309 310 311 311 312 313 314 313 314 316 316 315 313 313 314 311 312 313 313 313 312 312 313 313 314 313
321 322 323 323 323 323 321 313 319 316 313 317 317 311 309 308 309 308 308 308 310 311 313 312 314 314 315 314 314 313 313 313 313 313 311 312 313 312 312 312 312 313 313 314 313
323 323 324 323 323 321 318 316 312 311 318 313 311 309 308 309 311 308 308 311 311 313 310 311 313 314 313 311 311 312 313 314 314 313 310 312 312 312 312 313 313 313 313 313 313
323 324 325 323 323 320 315 315 310 308 315 315 309 309 309 309 312 311 308 310 311 311 312 314 315 311 311 312 312 313 313 313 314 312 311 310 313 313 314 313 312 312 312 311 311
323 323 323 323 321 320 314 315 308 307 323 321 310 308 307 308 309 304 305 309 310 312 311 312 311 310 310 311 312 314 314 312 311 312 313 310 315 315 315 314 313 313 311 311 310
321 322 322 322 323 320 316 313 309 306 332 314 308 307 307 307 307 306 304 308 311 311 310 314 311 310 312 312 311 313 309 309 310 312 312 312 313 318 311 314 314 313 310 308 307
320 320 320 320 321 319 318 317 312 325 332 319 308 310 309 307 306 306 307 306 306 308 309 310 307 308 310 308 308 308 310 310 309 311 315 316 314 316 315 314 313 312 307 306 305
315 315 317 319 320 319 320 318 325 328 322 322 311 308 310 309 308 307 311 314 317 318 319 316 314 308 306 310 308 309 310 317 322 320 321 310 316 314 314 311 310 307 306 305 304
307 307 310 315 318 318 319 323 325 322 322 320 317 313 322 311 315 312 316 319 311 311 315 319 321 309 307 311 314 310 315 325 328 327 325 319 323 320 314 310 307 306 305 304 303
304 304 305 307 314 317 319 321 320 320 320 321 319 321 321 316 317 314 313 317 313 309 316 320 320 310 305 306 311 315 313 313 318 320 321 320 319 316 311 311 308 307 306 303 301
300 303 308 308 311 315 316 315 315 318 318 319 321 320 320 319 317 314 318 312 312 308 308 317 322 318 314 306 307 310 309 314 317 322 324 320 317 317 314 312 309 307 304 301 299
298 305 304 309 312 314 314 313 312 313 315 317 318 319 319 319 319 319 318 318 317 313 309 315 317 316 316 314 315 308 312 314 315 319 321 320 316 313 313 309 308 304 300 298 297
304 301 308 312 313 313 313 312 311 312 312 313 315 317 317 316 316 316 315 314 315 314 315 315 317 319 318 315 312 312 316 316 318 317 314 314 315 310 308 305 301 298 296 296 294
304 304 307 311 310 311 311 312 311 311 311 312 311 313 313 313 314 312 312 312 312 314 315 314 316 318 319 315 312 313 314 313 314 314 317 319 320 309 303 300 298 296 295 294 294
300 302 303 309 309 308 308 308 310 307 310 310 310 311 312 311 310 312 311 311 309 310 309 312 314 315 317 316 314 315 315 313 313 314 314 313 311 309 308 305 297 294 294 293 291
297 299 300 307 307 308 306 306 307 307 306 306 307 309 307 307 307 308 307 307 307 304 307 309 311 311 312 312 312 310 309 307 307 307 308 307 307 306 304 296 293 291 292 294 290
297 298 297 298 299 302 303 305 305 305 304 303 304 304 303 304 304 306 304 304 305 302 302 303 306 306 304 304 304 305 304 303 302 301 300 301 301 301 294 292 292 291 290 292 290
292 294 296 295 297 299 300 302 300 300 297 297 297 298 299 300 300 298 297 297 298 299 299 299 302 303 304 302 301 300 300 300 300 299 299 298 297 294 292 291 291 290 290 291 290
Wind_Speed
7 7 7 8 8 8 8 8 8 9 9 9 9 10 11 14 15 9 7 6 5 12 11 13 6 5 3 3 2 1 4 5 4 5 3 4 5 4 2 7 4 7 8 7 5
8 8 9 9 9 10 10 10 10 11 11 11 11 12 13 15 14 10 9 7 7 17 15 15 9 7 3 3 3 5 4 6 5 6 5 4 5 7 6 12 14 12 17 14 7
8 9 10 10 10 10 11 11 12 13 14 14 13 12 11 13 6 2 2 7 10 16 13 10 10 7 5 4 7 5 7 8 8 12 7 7 7 5 10 16 16 13 11 9 13
7 8 9 10 11 12 12 13 13 13 14 15 14 12 9 4 6 2 1 9 14 17 12 9 7 6 5 7 5 6 12 11 4 3 3 6 5 8 14 26 21 19 18 14 14
7 8 9 10 12 13 13 14 15 15 15 15 14 11 3 2 7 7 6 8 15 17 14 10 8 6 8 6 5 9 11 10 12 9 9 10 20 15 22 25 25 20 15 18 17
6 7 9 10 11 12 13 16 16 16 16 16 13 8 2 8 6 8 5 10 12 15 11 9 6 6 3 6 9 2 8 13 10 13 11 11 25 4 16 14 17 14 17 15 16
5 6 7 9 11 12 14 16 18 18 16 15 11 4 3 13 5 6 7 8 12 11 6 6 4 6 4 5 3 4 11 16 14 11 9 9 13 17 22 11 15 19 16 12 13
4 6 8 10 12 14 17 17 19 16 11 10 5 5 7 5 5 8 9 4 8 11 7 3 7 2 4 1 2 6 4 11 4 5 3 10 20 21 11 8 14 17 18 19 24
5 6 8 10 13 15 18 18 12 5 7 5 4 3 6 2 1 3 7 3 7 6 4 7 5 3 2 9 9 8 13 17 16 8 3 12 12 14 6 9 22 23 23 24 22
5 7 9 11 14 17 16 13 3 3 3 5 4 2 4 1 2 3 5 11 3 8 5 3 3 7 5 8 13 14 10 9 11 5 8 12 19 20 23 22 26 26 26 21 18
6 6 8 13 14 16 14 3 2 1 1 3 7 6 4 0 3 2 3 6 4 3 8 4 9 13 21 21 21 16 16 21 20 18 13 22 21 18 20 24 26 26 21 16 14
7 9 10 12 12 10 6 4 3 1 8 9 10 7 4 2 3 3 6 6 5 7 5 3 13 17 10 8 12 17 21 22 21 17 7 18 24 24 24 27 24 22 17 14 13
9 10 11 9 8 4 6 3 1 2 4 6 1 2 2 3 4 2 3 4 4 7 11 18 11 3 13 13 14 18 17 19 21 14 13 13 15 3 9 12 12 11 11 8 9
7 5 4 4 0 2 1 4 2 2 4 2 0 1 1 1 2 2 1 1 2 5 6 10 6 6 4 9 14 21 15 17 15 7 9 5 10 11 14 15 5 10 9 10 15
4 4 4 2 2 1 2 2 2 1 6 1 2 1 2 1 3 4 1 3 3 3 2 7 5 3 9 11 6 9 5 5 4 7 6 6 7 4 2 11 5 8 10 15 15
5 3 3 2 3 2 2 2 1 1 6 2 3 4 5 3 2 2 1 0 2 3 5 13 1 5 6 2 5 0 5 6 2 4 8 9 8 3 2 2 2 10 15 15 16
4 4 4 5 1 3 2 2 2 5 1 3 3 1 2 4 5 8 7 6 5 9 13 12 11 3 4 8 3 2 4 5 6 5 8 4 4 7 12 4 8 11 11 15 17
5 5 5 6 7 5 2 2 9 3 7 1 2 2 3 5 5 4 7 12 3 7 10 10 17 6 5 4 3 4 4 4 5 8 17 5 9 5 5 9 16 16 13 13 14
8 7 6 9 10 8 1 6 6 7 5 5 3 8 10 2 5 2 4 9 4 13 9 5 9 1 5 4 4 5 8 8 13 9 6 10 16 14 7 8 10 10 10 11 11
3 5 4 9 15 10 3 10 7 4 1 3 10 6 14 12 5 2 5 2 1 3 5 3 6 10 2 1 7 8 2 3 3 6 7 8 18 15 12 8 5 9 10 11 11
6 2 3 9 17 2 7 8 8 5 6 6 10 11 10 11 10 10 6 2 4 3 5 11 8 15 1 8 16 4 6 5 3 5 6 14 14 15 5 8 7 8 11 12 13
4 3 7 23 5 3 8 5 3 3 2 3 4 9 13 9 10 10 14 12 1 6 11 7 3 6 19 16 10 11 17 20 13 12 13 17 19 8 11 8 4 4 4 5 8
4 1 5 8 6 9 5 6 7 7 7 4 6 5 2 8 6 11 12 1 4 4 4 3 3 8 7 7 1 6 7 9 8 2 14 14 4 8 10 9 5 2 0 2 6
2 3 1 2 0 6 9 9 9 1 5 9 8 6 7 10 10 10 8 3 5 4 7 2 4 8 13 16 15 10 11 8 9 6 11 11 18 19 17 11 1 1 1 1 2
1 2 1 5 8 7 4 3 4 5 2 3 3 5 0 4 4 8 10 6 3 4 2 1 7 10 13 12 11 13 16 17 17 15 9 15 18 22 17 2 1 2 3 6 4
3 3 1 2 2 4 8 11 18 15 11 7 11 12 5 10 12 12 8 9 13 2 3 1 8 10 14 16 14 16 17 19 19 20 22 24 26 19 0 2 4 5 6 7 6
2 1 1 4 4 6 5 6 4 7 2 2 3 0 3 4 1 2 5 6 6 4 2 3 4 7 17 15 10 10 20 17 19 23 23 23 13 5 2 4 7 7 10 12 9
Wind_Direction
14 11 5 360 357 354 351 346 339 335 333 333 335 335 333 329 319 296 248 234 209 190 174 158 146 140 131 118 118 207 233 243 241 207 224 186 236 182 273 262 217 209 248 288 174
1 1 357 354 350 349 344 339 332 325 321 320 322 328 330 329 314 256 260 231 193 186 168 167 167 158 166 151 180 221 238 246 231 220 242 254 245 282 256 257 249 254 249 244 219
357 357 355 353 351 347 343 338 335 326 322 319 317 319 325 333 295 242 193 217 190 183 188 172 154 170 199 190 191 181 238 247 240 239 252 274 265 241 268 272 260 270 277 258 231
353 355 354 352 349 346 341 336 333 325 323 322 321 319 322 340 300 212 212 168 182 183 161 145 159 181 218 216 187 232 243 244 264 222 234 260 296 257 245 261 278 285 279 279 253
351 353 353 352 350 349 343 336 330 321 318 316 317 318 330 219 249 266 253 198 182 182 183 174 179 191 218 214 193 232 251 251 248 253 252 275 265 264 264 266 278 273 268 267 266
349 352 352 350 350 348 340 331 324 315 310 306 304 299 166 255 252 264 239 191 192 187 189 183 221 212 246 239 222 266 263 273 263 251 238 239 269 252 257 270 277 276 272 268 261
344 351 351 348 347 345 339 330 320 313 305 299 289 229 222 255 231 231 204 200 207 196 181 209 165 192 172 253 254 311 294 288 260 246 230 214 263 235 262 271 273 283 286 281 261
339 345 349 349 347 346 341 330 321 316 313 297 259 169 251 256 258 240 224 198 193 201 224 225 195 201 237 350 247 262 250 279 285 171 191 196 270 278 294 277 279 283 284 281 279
330 338 344 346 347 347 341 331 331 3 26 78 116 189 263 291 273 240 203 170 150 146 123 130 159 224 203 240 266 224 266 261 285 229 202 204 270 284 274 293 290 284 283 278 285
311 326 337 344 346 345 343 334 7 30 49 78 100 222 213 302 147 126 165 155 127 132 118 158 163 212 216 217 247 261 249 250 256 274 234 266 258 277 286 289 279 283 279 286 288
295 306 327 337 338 345 349 347 284 190 310 268 267 265 277 45 157 76 130 130 119 178 199 184 209 216 231 228 246 280 272 271 277 282 297 283 287 285 281 279 278 278 285 290 285
287 295 309 314 326 342 12 63 71 327 296 261 266 273 302 351 304 104 154 191 188 217 140 174 236 244 275 276 255 259 266 273 277 275 285 287 293 288 272 270 271 282 292 289 303
266 281 292 303 328 14 62 87 315 163 257 292 271 248 331 203 214 213 233 148 204 190 211 247 266 250 221 240 260 252 262 269 276 306 273 297 284 246 294 266 290 285 283 308 357
246 254 288 319 86 4 88 1 351 238 273 249 151 132 137 109 82 323 52 126 155 299 247 261 306 245 243 248 247 274 267 267 277 286 283 359 292 293 274 284 334 26 67 60 65
264 273 277 276 205 167 161 53 20 266 288 79 151 194 144 127 122 32 282 151 237 244 219 273 270 214 223 235 223 272 352 297 282 261 294 240 259 321 260 263 181 60 57 67 45
193 203 211 227 224 198 162 351 127 200 249 204 192 180 151 146 120 149 199 20 154 198 207 268 254 242 251 182 200 35 299 273 228 267 262 264 222 100 190 276 351 59 77 52 47
183 187 201 179 165 155 135 324 263 215 104 197 225 212 332 161 182 187 181 214 280 298 295 290 265 249 232 249 133 172 300 299 260 222 268 93 269 273 275 255 4 84 70 52 41
228 216 212 216 190 149 135 125 239 179 243 122 173 181 253 176 235 227 271 279 225 233 279 288 294 197 163 232 140 175 217 207 277 283 291 285 256 266 296 63 65 55 52 46 40
251 243 226 231 191 155 202 221 233 221 225 244 218 262 260 227 253 299 261 281 301 190 227 247 253 128 204 155 178 193 216 242 258 268 273 254 270 277 18 169 73 59 50 47 44
195 173 222 222 185 153 202 248 243 226 173 250 254 241 272 276 246 240 259 121 273 170 336 19 291 222 264 237 225 226 82 219 184 227 231 260 288 273 251 169 70 47 34 29 22
156 170 176 167 152 183 213 227 258 263 266 256 253 259 267 287 267 270 253 238 203 184 182 192 220 281 239 227 259 188 211 212 199 223 284 278 273 312 344 80 71 26 16 18 20
156 179 155 159 174 190 227 211 222 237 63 297 303 257 258 275 273 264 258 251 124 296 274 243 251 246 262 264 247 254 263 252 243 250 247 254 256 106 114 107 97 84 45 12 12
152 84 187 198 197 212 221 230 240 225 230 225 250 237 232 262 270 254 262 309 328 293 289 16 246 275 255 245 176 245 259 272 279 308 250 259 238 110 136 98 61 130 49 30 356
136 141 245 227 278 221 236 252 237 36 250 230 241 243 254 257 252 271 282 358 359 355 10 336 223 254 275 284 308 285 269 263 248 260 276 254 273 274 284 315 41 280 259 226 337
72 183 336 186 223 208 248 223 203 207 249 245 224 195 119 268 292 254 280 285 232 358 256 281 268 278 275 280 279 273 275 265 260 268 258 285 288 279 299 331 24 324 254 228 260
154 159 138 127 67 181 208 240 245 247 247 238 258 279 278 251 251 284 297 271 272 287 284 189 262 288 282 278 259 263 261 264 275 272 264 261 266 287 41 332 255 292 298 278 297
142 88 137 137 166 185 206 215 166 164 90 125 112 293 236 255 185 184 242 254 260 259 274 276 269 270 270 276 288 261 246 260 267 270 271 275 293 97 185 286 301 305 317 299 295